[[{"header":{"parameterUnit":"m.s-1","parameterCategory":1,"la1":30.2991,"la2":30.254,"lo1":-89.0895,"lo2":-89.0444,"dy":0.0017,"dx":0.0017,"nx":28,"ny":28,"refTime":"2023-07-21T09:00:00:Z","depth":0,"parameterNumber":2,"parameterNumberName":"U-component_of_WINDS"},"data":[0,0,0,0,0,0,0,0,0,0,0,0,0,0,0,0,0,0,0,0,0,0,0,0,0,0,0,0,0,0,0,0,0,0,0,0,0,0,0,0,0,0,0,0,0,0,0,0,0,0,0,0,0,0,0,0,0,0,5.3866,5.3867,0,5.3954,5.3955,5.3956,5.3874,5.387,5.3867,5.3864,5.3952,5.3957,5.3963,0,0,0,0,0,0,0,0,0,0,0,0,0,5.3622,5.3627,5.3866,5.3867,5.3868,5.3954,5.3955,5.3956,5.3874,5.387,5.3866,5.3862,5.395,5.3957,5.3963,0,0,0,0,0,0,0,0,0,0,0,0,0,5.3721,5.3629,5.3866,5.3837,5.3836,5.3954,5.3955,5.3957,5.3875,5.387,5.3865,5.386,5.3948,5.3956,5.3964,5.4113,0,0,5.3989,5.3992,0,0,0,0,0,0,0,0,5.3715,5.373,5.3841,5.384,5.3838,5.3898,5.3901,5.4009,5.3876,5.386,5.3864,5.3858,5.3938,5.3946,5.3974,5.4118,5.4121,5.399,5.3995,5.3998,5.4,0,0,0,0,0,0,0,5.3709,5.3726,5.3901,5.3842,5.3841,5.3819,5.3828,5.3921,5.3926,5.3861,5.3855,5.3867,5.3936,5.3966,5.3975,5.4123,5.3989,5.3997,5.4002,5.4005,5.4389,5.4394,0,0,0,0,0,0,5.3705,5.372,5.3898,5.3903,5.3763,5.3827,5.3837,5.3884,5.3924,5.3926,5.3871,5.3863,5.3955,5.3966,5.3978,5.4152,5.3998,5.4006,5.401,5.4384,5.439,5.4396,0,0,0,0,0,0,5.37,5.3722,5.3894,5.381,5.3831,5.3837,5.389,5.3888,5.3918,5.3932,5.3932,5.3901,5.3951,5.3967,5.408,5.4154,5.4009,5.4017,5.4377,5.4385,5.4393,5.4504,0,0,0,0,0,0,5.3694,5.3721,5.3779,5.3812,5.3836,5.3996,5.3895,5.3893,5.3932,5.3922,5.396,5.3962,5.3949,5.4068,5.4088,5.4163,5.4023,5.437,5.4381,5.439,5.4494,5.4515,5.4533,0,0,0,0,0,5.3685,5.3807,5.3782,5.3804,5.3908,5.4,5.4013,5.3996,5.3939,5.3996,5.4005,5.3961,5.4144,5.408,5.4102,5.418,5.4366,5.4378,5.439,5.4485,5.4511,5.4532,0,0,0,0,0,0,5.3782,5.3811,5.3784,5.392,5.3958,5.3986,5.4058,5.4025,5.408,5.4068,5.4044,5.4053,5.4172,5.4188,5.4117,5.4325,5.4245,5.4262,5.431,5.4335,5.4354,5.4346,5.403,0,0,0,0,0,5.3819,5.3892,5.3914,5.4032,5.4052,5.4052,5.4092,5.4075,5.4114,5.4129,5.4146,5.4184,5.425,5.4294,5.4355,5.4496,5.4501,5.4561,5.458,5.4596,5.461,5.4682,5.4708,5.4435,5.4435,5.4435,0,0,5.3896,5.3921,5.3969,5.4052,5.4079,5.4154,5.4066,5.415,5.4204,5.4142,5.4248,5.4262,5.4303,5.443,5.4486,5.4447,5.4687,5.4612,5.4624,5.463,5.4697,5.4723,5.4746,5.4443,5.4442,5.444,0,0,5.4074,5.4103,5.4202,5.4231,5.4274,5.4273,5.4297,5.433,5.4337,5.4444,5.4397,5.4461,5.4576,5.4605,5.4636,5.4823,5.4783,5.4844,5.4945,5.5016,5.5037,5.5056,5.5119,5.5142,5.4858,5.4859,5.4859,0,5.4165,5.4276,5.4257,5.4343,5.4379,5.4327,5.4425,5.4455,5.4516,5.4541,5.4496,5.4636,5.4661,5.4791,5.4837,5.4864,5.4888,5.4838,5.5036,5.5054,5.5072,5.5131,5.5156,5.4865,5.4865,5.4864,5.4863,0,5.4383,5.4461,5.4536,5.4596,5.4641,5.4733,5.4726,5.4774,5.4753,5.4756,5.4864,5.4891,5.4955,5.4985,5.4967,5.5113,5.5086,5.504,5.4958,5.5105,5.516,5.5183,5.4875,5.4873,5.4871,5.4869,0,0,5.4624,5.4671,5.4698,5.4723,5.4766,5.4825,5.4914,5.4977,5.5016,5.506,5.5131,5.5229,5.5184,5.5219,5.5203,5.5265,5.5407,5.521,5.521,5.5242,5.5565,5.5598,5.5625,5.5382,5.5386,5.539,5.556,0,5.48,5.4955,5.4939,5.5086,5.5155,5.5105,5.5182,5.5216,5.5221,5.5279,5.5284,5.5352,5.5291,5.531,5.537,5.5377,5.5471,5.5365,5.5445,5.5448,5.5433,5.5654,5.569,5.585,5.5582,5.5586,5.5589,0,5.5027,5.5078,5.5231,5.526,5.5289,5.5358,5.5413,5.5471,5.5507,5.5505,5.5543,5.5515,5.5602,5.5521,5.5638,5.5566,5.5598,5.5607,5.5612,5.5616,5.5525,5.5661,5.5901,5.5923,5.5624,5.5621,5.5618,0,5.5182,5.5289,5.5394,5.5417,5.5455,5.5504,5.5522,5.5553,5.5591,5.5639,5.5662,5.572,5.5751,5.5795,5.5782,5.5725,5.5901,5.582,5.59,5.59,5.5937,5.5934,5.6181,5.5964,5.5964,5.5963,5.5963,0,5.5379,5.5474,5.5463,5.5527,5.5631,5.5612,5.5714,5.5725,5.5753,5.5817,5.5778,5.5838,5.582,5.5879,5.587,5.5966,5.5981,5.5981,5.5976,5.5982,5.5982,5.6,5.5987,5.5969,5.5968,5.5967,5.5966,0,5.5569,5.5567,5.5676,5.5703,5.5711,5.5786,5.5808,5.5867,5.5868,5.5949,5.5967,5.5969,5.6036,5.6028,5.6104,5.6097,5.6215,5.62,5.6203,5.6198,5.6277,5.6269,5.6543,5.6576,5.634,5.6342,5.6344,0,5.5693,5.5765,5.5798,5.5838,5.5859,5.5925,5.5962,5.5946,5.5987,5.6032,5.6085,5.6148,5.6197,5.6306,5.6313,5.637,5.6353,5.6445,5.6361,5.6363,5.6349,5.6344,5.6349,5.646,5.6463,5.6465,5.6467,0,5.5912,5.5907,5.5964,5.602,5.6066,5.6109,5.6148,5.6183,5.617,5.6217,5.6285,5.6323,5.6399,5.6461,5.6514,5.6531,5.6496,5.6494,5.6515,5.6519,5.6517,5.6515,5.6244,5.6487,5.6485,5.6484,5.6482,5.6482,5.6071,5.613,5.6162,5.6226,5.6253,5.629,5.6346,5.6354,5.6411,5.6471,5.6458,5.6533,5.6564,5.6632,5.6654,5.6711,5.6677,5.6709,5.6716,5.6723,5.673,5.6511,5.6721,5.6721,5.672,5.672,5.6719,0,5.6284,5.6302,5.6361,5.6416,5.6466,5.643,5.6471,5.6514,5.6581,5.6613,5.6663,5.6739,5.6798,5.681,5.6866,5.691,5.6895,5.6925,5.6919,5.6923,5.6759,5.6734,5.6935,5.6935,5.6935,5.6935,5.6935,5.6935,5.6401,5.6499,5.6497,5.6607,5.6624,5.6698,5.6723,5.6756,5.6781,5.6868,5.6918,5.6925,5.6948,5.7006,5.7058,5.7059,5.708,5.7116,5.7111,5.6957,5.6935,5.6914,5.689,5.7121,5.7122,5.7269,5.7271,5.7272]},{"header":{"parameterUnit":"m.s-1","parameterCategory":1,"la1":30.2991,"la2":30.254,"lo1":-89.0895,"lo2":-89.0444,"dy":0.0017,"dx":0.0017,"nx":28,"ny":28,"refTime":"2023-07-21T09:00:00:Z","depth":0,"parameterNumber":3,"parameterNumberName":"V-component_of_WINDS"},"data":[0,0,0,0,0,0,0,0,0,0,0,0,0,0,0,0,0,0,0,0,0,0,0,0,0,0,0,0,0,0,0,0,0,0,0,0,0,0,0,0,0,0,0,0,0,0,0,0,0,0,0,0,0,0,0,0,0,0,3.9901,3.9901,0,3.9955,3.9956,3.9957,3.9926,3.9925,3.9923,3.9922,3.9975,3.9978,3.998,0,0,0,0,0,0,0,0,0,0,0,0,0,3.9765,3.9767,3.99,3.9901,3.9902,3.9955,3.9956,3.9957,3.9926,3.9925,3.9923,3.9921,3.9974,3.9977,3.9981,0,0,0,0,0,0,0,0,0,0,0,0,0,3.9822,3.9768,3.99,3.9893,3.9893,3.9955,3.9956,3.9957,3.9927,3.9925,3.9922,3.992,3.9973,3.9977,3.9981,4.0053,0,0,3.9994,3.9996,0,0,0,0,0,0,0,0,3.9819,3.9827,3.9894,3.9894,3.9894,3.9932,3.9928,3.9989,3.9927,3.9914,3.9922,3.9919,3.9962,3.9967,3.9982,4.0055,4.0057,3.9994,3.9997,3.9999,4.0,0,0,0,0,0,0,0,3.9815,3.9824,3.9922,3.9895,3.9895,3.9886,3.9891,3.9939,3.995,3.9915,3.9913,3.992,3.9962,3.9978,3.9983,4.0058,3.9994,3.9998,4.0001,4.0002,4.0189,4.0191,0,0,0,0,0,0,3.9812,3.9821,3.992,3.9924,3.985,3.989,3.9896,3.9922,3.9949,3.9951,3.9922,3.9918,3.9972,3.9978,3.9985,4.0069,3.9999,4.0003,4.0005,4.0187,4.019,4.0192,0,0,0,0,0,0,3.9809,3.9821,3.9918,3.9872,3.9884,3.9895,3.9924,3.9924,3.9941,3.9955,3.9956,3.9937,3.9971,3.9979,4.0036,4.007,4.0005,4.0009,4.0184,4.0188,4.0191,4.0238,0,0,0,0,0,0,3.9805,3.982,3.9849,3.9873,3.9886,3.9969,3.9926,3.9927,3.9948,3.9944,3.9969,3.9971,3.997,4.0029,4.004,4.0075,4.0012,4.0181,4.0185,4.019,4.0233,4.0242,4.025,0,0,0,0,0,3.9801,3.9859,3.985,3.9862,3.9922,3.9971,3.9979,3.9977,3.9951,3.9979,3.9988,3.997,4.0065,4.0035,4.0047,4.0084,4.0179,4.0184,4.0189,4.0229,4.0241,4.025,0,0,0,0,0,0,3.9838,3.9863,3.9853,3.9922,3.9945,3.9966,4.0001,3.9989,4.0019,4.0014,4.0009,4.0015,4.0073,4.0084,4.0051,4.0153,4.0117,4.0125,4.0144,4.0155,4.0163,4.0159,4.0015,0,0,0,0,0,3.9855,3.9894,3.9913,3.9971,3.9984,3.9991,4.0012,4.0008,4.0031,4.0041,4.0054,4.0076,4.011,4.0133,4.0166,4.0234,4.0238,4.0265,4.0274,4.0281,4.0288,4.0322,4.0334,4.021,4.021,4.021,0,0,3.9889,3.9907,3.9932,3.9979,3.9997,4.0036,3.9999,4.0042,4.007,4.0047,4.0101,4.0111,4.0135,4.0198,4.0226,4.0208,4.0322,4.0288,4.0293,4.0296,4.0329,4.0341,4.0351,4.0214,4.0213,4.0213,0,0,3.9971,3.999,4.004,4.0058,4.0085,4.0089,4.0101,4.0124,4.013,4.0184,4.0167,4.0199,4.0259,4.0277,4.0294,4.038,4.0365,4.0391,4.0436,4.047,4.048,4.0488,4.0517,4.0528,4.0397,4.0398,4.0398,0,4.001,4.007,4.0067,4.0111,4.0131,4.0112,4.0162,4.0179,4.0215,4.0229,4.0209,4.0282,4.0298,4.0363,4.0384,4.0398,4.041,4.0388,4.0479,4.0487,4.0495,4.0523,4.0534,4.0401,4.04,4.04,4.04,0,4.0115,4.0156,4.0193,4.0229,4.0253,4.03,4.0302,4.0327,4.0321,4.0326,4.038,4.0397,4.0432,4.0447,4.0442,4.0511,4.0499,4.0479,4.0444,4.051,4.0536,4.0546,4.0405,4.0404,4.0403,4.0402,0,0,4.0223,4.0256,4.0269,4.0284,4.0312,4.0343,4.0387,4.0422,4.0442,4.0467,4.0503,4.0554,4.0535,4.0554,4.0549,4.058,4.0644,4.0555,4.0556,4.057,4.072,4.0734,4.0746,4.0635,4.0637,4.0638,4.0717,0,4.0306,4.0385,4.0383,4.0456,4.0493,4.0474,4.0513,4.0533,4.0539,4.0569,4.0575,4.061,4.0584,4.0595,4.0624,4.0631,4.0674,4.0625,4.0666,4.0668,4.066,4.076,4.0776,4.0849,4.0727,4.0729,4.073,0,4.0413,4.0442,4.0519,4.0539,4.0554,4.0589,4.062,4.065,4.0671,4.0673,4.0694,4.0684,4.0727,4.0691,4.0749,4.0715,4.0732,4.0738,4.074,4.0743,4.0703,4.0765,4.0873,4.0884,4.0747,4.0745,4.0744,0,4.0483,4.054,4.0593,4.0607,4.0632,4.0657,4.0668,4.0688,4.0708,4.0734,4.0747,4.0777,4.0794,4.0817,4.0815,4.0789,4.0873,4.0837,4.0875,4.0875,4.0893,4.0892,4.1004,4.0906,4.0905,4.0905,4.0905,0,4.0575,4.0622,4.0624,4.0657,4.0709,4.0705,4.0755,4.0764,4.0781,4.0814,4.0799,4.083,4.0826,4.0856,4.0855,4.0902,4.091,4.0911,4.091,4.0912,4.0912,4.0922,4.0916,4.0908,4.0907,4.0907,4.0906,0,4.0661,4.0665,4.0721,4.074,4.0746,4.0783,4.0798,4.0828,4.0832,4.0873,4.0882,4.0888,4.0923,4.0923,4.0963,4.0962,4.1019,4.1013,4.1012,4.101,4.1047,4.1043,4.117,4.1185,4.1078,4.1079,4.1079,0,4.0719,4.0755,4.0777,4.0798,4.0811,4.0846,4.0866,4.0863,4.0884,4.0911,4.0937,4.097,4.0996,4.1052,4.1059,4.1088,4.1081,4.1124,4.1086,4.1086,4.108,4.1078,4.108,4.1131,4.1132,4.1133,4.1134,0,4.0821,4.082,4.0851,4.0882,4.0907,4.0931,4.0953,4.0971,4.097,4.0994,4.103,4.105,4.109,4.1122,4.115,4.116,4.1147,4.1146,4.1156,4.1158,4.1155,4.1155,4.1031,4.1143,4.1142,4.1141,4.1141,4.1141,4.0893,4.0924,4.0944,4.0978,4.0994,4.1015,4.1043,4.1051,4.108,4.1113,4.1109,4.1148,4.1166,4.1202,4.1215,4.1244,4.1229,4.1244,4.1247,4.1251,4.1254,4.1151,4.1249,4.1249,4.1249,4.1248,4.1248,0,4.0993,4.1005,4.1036,4.1068,4.1094,4.1079,4.1103,4.1125,4.116,4.1178,4.1204,4.1244,4.1274,4.1284,4.1313,4.1334,4.1328,4.1342,4.134,4.1342,4.1266,4.1254,4.1346,4.1346,4.1346,4.1346,4.1346,4.1346,4.1048,4.1098,4.11,4.1157,4.1168,4.1206,4.122,4.1238,4.1253,4.1298,4.1324,4.133,4.1344,4.1374,4.1401,4.1403,4.1413,4.1429,4.1428,4.1357,4.1347,4.1338,4.1326,4.1432,4.1432,4.1501,4.1502,4.1502]}]]